This is the latest recevied weather packets stored in our database for station/object SP1BMW-13. If no packets are shown the sender has not sent any weather packets the latest 10 day(s).
| Time | Temp. | Humidity | Pressure | Rain* | Wind** | Luminosity | Snow |
|---|---|---|---|---|---|---|---|
| 1788071677 | 20.56° C | 68% | 1008.2 hPa | 0 mm | 1.79 m/s, 180° | 113 W/m² | - |
| 1788071616 | 20.56° C | 69% | 1008.1 hPa | 0 mm | 0.45 m/s, 280° | 116 W/m² | - |
| 1788071557 | 20.56° C | 69% | 1008.1 hPa | 0 mm | 0.45 m/s, 38° | 117 W/m² | - |
| 1788071496 | 20.56° C | 69% | 1008.2 hPa | 0 mm | 0.89 m/s, 13° | 118 W/m² | - |
| 1788071436 | 20.56° C | 69% | 1008 hPa | 0 mm | 0 m/s | 119 W/m² | - |
| 1788071376 | 20.56° C | 69% | 1008.1 hPa | 0 mm | 0.45 m/s, 316° | 119 W/m² | - |
| 1788071316 | 20.56° C | 69% | 1008 hPa | 0 mm | 0.45 m/s, 327° | 115 W/m² | - |
| 1788071256 | 20.56° C | 70% | 1008.1 hPa | 0 mm | 0 m/s | 114 W/m² | - |
| 1788071199 | 20.56° C | 69% | 1008.1 hPa | 0 mm | 0.45 m/s, 6° | 115 W/m² | - |
| 1788071136 | 20.56° C | 69% | 1008.2 hPa | 0 mm | 0.45 m/s, 38° | 117 W/m² | - |
| 1788071076 | 20° C | 69% | 1008.2 hPa | 0 mm | 0 m/s | 119 W/m² | - |
| 1788071017 | 20° C | 69% | 1008.1 hPa | 0 mm | 1.79 m/s, 163° | 121 W/m² | - |
| 1788070960 | 20° C | 69% | 1008.2 hPa | 0 mm | 0.45 m/s, 141° | 121 W/m² | - |
| 1788070896 | 20° C | 70% | 1008.1 hPa | 0 mm | 0.45 m/s, 120° | 120 W/m² | - |
| 1788070840 | 20° C | 71% | 1007.9 hPa | 0 mm | 0 m/s | 114 W/m² | - |
| 1788070780 | 20° C | 70% | 1008 hPa | 0 mm | 0.45 m/s, 347° | 108 W/m² | - |
| 1788070716 | 20° C | 70% | 1008.1 hPa | 0 mm | 0 m/s | 102 W/m² | - |
| 1788070659 | 20° C | 70% | 1008 hPa | 0 mm | 0.45 m/s, 22° | 100 W/m² | - |
| 1788070596 | 20° C | 71% | 1008.1 hPa | 0 mm | 0.45 m/s, 73° | 101 W/m² | - |
| 1788070536 | 20° C | 70% | 1008.1 hPa | 0 mm | 0.45 m/s, 46° | 100 W/m² | - |
| 1788070476 | 20° C | 71% | 1008.1 hPa | 0 mm | 0 m/s | 98 W/m² | - |
| 1788070416 | 20° C | 71% | 1008.1 hPa | 0 mm | 0 m/s | 98 W/m² | - |
| 1788070357 | 20° C | 70% | 1008.3 hPa | 0 mm | 0.89 m/s, 24° | 96 W/m² | - |
| 1788070296 | 20° C | 70% | 1008.2 hPa | 0 mm | 0.89 m/s, 49° | 93 W/m² | - |
| 1788070236 | 20° C | 71% | 1008.2 hPa | 0 mm | 0.45 m/s, 15° | 91 W/m² | - |
* Rain latest hour (hover to see other rain measurements)
** Current wind speed in m/s (hover to see current wind gust speed)